Погода в Бара

Россия / Республика Бурятия     51°17′49″N   107°33′33″E
темп.,
°C
ветер,
м/с
пор.,
м/с
влажн.,
%
обл.,
%
осадки,
мм/ч
давл.,
гПа
погр.,
м
15 июня, вт
вт1523:00+11сз0075100 0.0 100710
02:00+9юз1187100 0.1 100710
05:00+9ссз2289100 0.1 100729
08:00+10ссз3476100 0.1 1009418
11:00+10сз897398 0.1 1009664
14:00+8ссз6976100 0.1 1011662
17:00+7ссз5880100 0.1 1012818
20:00+9сз3770100 0.2 10121156
16 июня, ср
ср1623:00+5зсз37895 0.0 1014202
02:00+3з22934 0.0 101423
05:00+3з22925 0.0 101422
08:00+9зсз58625 0.0 10121025
11:00+12зсз795037 0.3 10101856
14:00+12сз8105489 1.0 10091645
17:00+7ссз61081100 0.5 1010602
20:00+6зсз3789100 0.8 1010875
17 июня, чт
чт1723:00+5сз2790100 0.2 1010605
02:00+3зсз2294100 0.2 101227
05:00+4сз379497 0.0 1012369
08:00+8зсз3684100 0.0 1011546
11:00+13сз596679 0.0 10091136
14:00+18ссз8124743 0.1 10071974
17:00+17сз7124711 0.0 10062035
20:00+16сз410490 0.0 1006778
18 июня, пт
пт1823:00+10зсз35690 0.0 100689
02:00+9зсз22750 0.0 100621
05:00+10сз6137148 0.0 1006431
08:00+13сз71167100 0.0 1005579
11:00+17сз8114599 0.0 10041913
14:00+20сз81134100 0.0 10032549
17:00+20ссз71033100 0.0 10032222
20:00+16ссз2248100 0.0 100424
19 июня, сб
сб1923:00+12сз2256100 0.0 100410
02:00+10с22653 0.0 100511
05:00+9всв11685 0.0 100510
08:00+16ю104913 0.0 1004297
11:00+22ю123371 0.0 10031730
14:00+24юз132738 0.0 10012390
17:00+24ссв3328100 0.0 10002387
20:00+20с2243100 0.0 100126